Location: Pedimozza
(42.0500°N, 9.3500°E)
Time: 16:05:50
(UTC+00:00)

Cosmos 2184 Rocket - Pass Details

Date: 19 August 2019
Orbit: 959 x 1002 km, 82.9° (Epoch: 17 October)

Event Time Altitude Azimuth Distance (km) Brightness Sun altitude
Rises 21:20:45 0° 355° (N) 3,659 7.9 -28.2°
Reaches altitude 10° 21:23:18 10° 359° (N) 2,705 7.0 -28.4°
Enters shadow 21:29:07 62° 64° (ENE) 1,074 4.1 -29.0°
